Theta_e
309 309 309 309 309 310 310 310 310 310 310 310 310 310 310 311 310 311 310 310 310 310 310 311 312 312 311 310 310 310 310 311 312 312 313 314 312 312 313 313 312 312 313 312 312 313 313 314 314 313 316 315 316 317 316 316 316 318 320 318 317 319 319 319 319 319 319 319 318 316 316 317 317 316 315 315 315 316 317 316 316 316 315 315 315 315 315 315
309 309 309 309 309 310 310 310 310 310 311 310 311 311 311 311 311 311 310 310 310 310 311 312 312 312 310 310 310 310 310 311 312 313 312 312 312 312 313 313 313 313 312 312 313 314 314 315 314 314 316 316 316 317 318 317 317 319 321 318 318 320 319 320 319 319 319 319 318 317 317 317 318 317 316 315 316 317 317 317 317 316 316 315 315 315 315 315
309 309 309 309 309 310 310 310 310 310 311 311 311 311 311 311 311 310 310 310 310 311 311 312 312 311 310 310 310 310 310 310 312 314 312 312 312 312 313 314 313 313 312 312 313 314 315 315 314 315 316 316 316 316 318 318 317 319 320 318 318 319 319 319 319 318 317 318 319 318 317 317 317 317 316 316 317 318 317 317 318 317 317 316 315 315 315 315
309 309 309 309 309 309 310 310 310 310 311 311 311 311 311 311 311 310 310 310 310 311 311 312 312 311 310 310 310 310 311 311 314 315 312 312 313 312 313 314 313 313 312 312 312 312 313 314 314 315 316 316 316 316 317 316 317 318 316 317 318 318 318 317 317 317 316 317 319 318 316 316 317 316 317 317 317 317 318 317 318 318 318 318 317 316 315 315
309 309 309 309 309 309 310 310 310 311 311 311 311 311 311 311 311 310 310 310 310 311 311 312 311 310 310 310 310 311 312 313 314 314 312 313 314 313 314 313 313 312 312 312 313 312 313 315 315 316 317 317 316 316 317 315 316 317 316 317 317 317 317 316 316 315 315 316 317 317 316 316 317 316 317 317 317 317 318 318 318 318 318 319 318 316 316 315
309 309 309 309 309 309 310 310 310 311 311 311 311 311 311 311 310 310 310 310 311 311 311 311 310 310 310 310 310 310 312 314 314 314 313 314 314 314 314 313 313 313 314 314 314 314 314 315 315 316 317 317 317 316 317 315 315 317 316 317 316 317 318 316 315 314 314 316 317 318 317 317 317 316 317 317 317 318 318 318 317 317 317 318 317 316 316 315
309 309 309 309 309 309 310 310 310 310 310 310 311 311 311 311 310 310 310 310 310 310 310 310 309 309 310 310 310 310 313 315 313 313 313 313 314 314 313 313 314 314 315 316 316 316 315 316 316 317 317 316 317 316 316 316 316 317 317 317 316 316 317 316 315 314 314 316 317 316 316 317 317 317 317 317 317 317 317 317 317 316 316 316 316 316 316 316
309 309 309 309 309 310 310 310 310 310 310 310 311 311 311 311 310 310 310 309 309 309 309 309 309 310 310 309 311 312 314 315 313 313 313 313 314 314 314 315 316 316 317 317 316 316 315 316 316 317 317 316 317 317 316 316 317 317 317 316 316 316 316 315 314 314 314 315 315 315 316 317 317 316 316 316 316 317 317 317 316 316 316 315 315 315 315 315
308 309 309 309 309 310 310 310 310 310 310 310 311 311 311 310 310 310 310 309 308 308 308 308 309 309 309 309 312 314 315 314 313 313 313 314 314 314 315 315 316 317 317 317 317 316 316 316 317 317 317 317 317 317 316 317 317 317 318 317 317 317 316 315 314 314 314 315 314 315 317 317 316 315 316 317 317 317 317 317 316 316 316 316 315 315 315 315
309 309 309 309 309 310 310 310 310 310 310 310 310 311 311 310 310 310 309 309 307 307 307 308 309 309 309 310 312 314 314 313 313 313 314 314 314 313 314 314 315 316 317 318 317 316 317 317 317 317 317 317 317 317 317 317 317 317 317 317 317 317 316 315 316 315 315 316 315 315 317 317 315 315 317 318 318 317 317 317 316 316 316 316 316 315 316 315
309 308 309 309 309 310 310 310 310 309 310 310 310 311 311 310 310 309 308 308 307 307 307 308 309 309 310 311 312 314 314 313 313 313 314 313 313 313 314 314 314 316 317 317 317 317 317 316 316 317 317 317 317 317 316 316 316 316 317 317 317 317 317 316 317 317 316 316 315 316 317 317 315 315 317 319 319 318 317 317 317 316 317 316 316 316 315 315
309 308 309 309 309 310 310 310 309 309 309 310 311 310 310 310 310 309 307 307 307 306 307 308 309 309 309 310 313 315 314 312 313 313 314 313 312 313 314 315 316 316 317 317 317 317 316 316 316 317 317 317 317 317 316 315 316 316 316 317 318 317 317 317 317 317 317 317 315 316 316 317 317 316 318 319 318 318 317 317 318 317 317 317 316 316 316 316
309 309 309 309 309 310 309 310 309 309 309 310 310 310 310 310 309 308 307 306 307 306 307 308 309 309 309 312 314 313 314 313 312 313 314 313 312 313 314 316 317 316 317 317 317 317 317 316 316 316 317 317 318 316 316 316 316 317 317 318 318 318 318 317 317 316 316 316 315 316 315 317 319 318 319 319 318 317 317 317 318 318 318 317 317 316 316 316
308 309 309 309 309 309 309 309 309 309 310 310 310 310 309 309 307 307 306 306 306 307 307 308 309 309 310 314 313 311 315 315 313 313 313 313 312 312 314 317 317 317 317 317 317 317 317 317 316 317 316 317 317 315 316 317 316 318 318 317 318 317 317 317 317 316 316 316 315 316 315 317 319 320 320 319 318 317 317 318 318 318 318 318 317 316 316 316
308 308 309 309 309 309 309 309 309 309 309 309 309 308 308 307 306 306 306 306 307 307 308 308 308 310 311 314 313 311 314 315 315 314 313 313 313 312 314 317 318 317 317 317 316 317 317 317 317 317 316 316 316 316 317 317 317 318 316 316 319 317 316 318 317 316 317 316 315 316 315 317 319 320 318 318 317 316 317 318 318 319 319 319 318 317 317 317
308 308 308 309 308 308 308 308 308 308 308 308 307 307 306 306 306 306 306 306 307 307 308 308 308 310 313 314 313 312 311 312 314 315 313 313 314 314 315 317 318 317 317 317 316 316 316 317 317 317 316 316 317 317 318 317 317 318 315 315 319 318 316 317 316 316 316 316 316 316 316 318 318 319 318 317 317 316 317 318 318 319 318 319 318 317 317 317
308 308 308 308 308 307 307 307 306 306 306 306 306 306 306 306 306 306 306 306 307 307 308 309 309 310 313 314 314 313 312 311 312 315 314 313 313 314 315 317 317 317 317 316 316 317 317 316 316 316 317 317 317 318 317 315 315 317 317 315 317 318 315 315 315 315 316 315 316 316 316 317 317 318 319 318 318 317 318 319 318 319 319 319 318 318 318 318
307 307 307 306 306 306 305 305 306 305 305 305 305 305 305 305 306 306 306 306 307 307 308 310 310 310 312 313 313 314 313 311 311 314 315 314 313 313 315 317 317 317 317 317 317 317 317 317 317 317 318 317 317 317 315 315 315 317 318 316 315 317 315 314 315 315 315 315 316 316 316 317 317 318 319 319 318 318 319 319 318 319 318 318 319 318 318 318
307 306 306 305 305 305 306 306 306 306 305 306 306 306 306 306 306 306 306 307 308 309 310 311 311 312 313 312 313 314 313 312 312 313 315 315 314 313 315 316 317 318 318 317 317 317 318 318 317 317 318 316 317 317 316 316 316 316 317 316 315 316 315 316 316 315 315 316 316 316 316 317 317 317 318 319 319 319 319 319 319 318 319 318 318 318 318 318
308 307 307 307 307 307 307 307 307 307 307 307 307 307 307 309 309 309 309 308 310 312 313 313 311 313 315 312 312 314 313 313 313 313 314 315 314 314 316 317 318 318 317 318 318 317 317 318 318 317 318 318 317 317 317 317 316 315 316 316 315 315 315 317 317 314 315 315 316 316 316 317 317 317 318 319 318 319 319 319 319 319 319 319 318 319 318 318
309 309 309 308 309 309 309 309 309 309 308 308 308 309 311 312 311 312 312 310 310 312 313 313 312 313 314 312 312 314 314 314 314 314 313 314 315 316 316 317 317 317 317 319 318 316 316 317 318 318 317 318 317 317 317 316 316 315 316 316 316 316 316 317 317 314 314 315 315 316 317 317 317 317 318 319 319 319 319 319 319 319 319 319 319 319 319 319
309 309 309 309 309 309 309 309 309 309 309 309 308 309 312 313 312 311 312 311 310 310 311 312 311 312 313 312 312 313 315 316 316 315 313 314 315 316 317 316 316 316 317 318 317 316 316 316 317 318 317 317 316 316 316 316 316 316 316 317 316 317 317 317 318 315 314 315 316 317 317 317 317 317 318 319 319 319 319 319 319 319 320 320 320 320 320 320
310 309 309 309 309 309 309 309 309 309 309 309 309 309 310 311 312 310 310 313 312 310 309 310 311 312 312 312 313 313 315 316 317 316 314 314 316 316 317 316 315 317 317 316 316 316 316 316 317 317 317 316 315 315 315 315 316 317 317 316 316 319 318 315 316 316 315 315 316 316 317 317 318 317 318 319 319 319 319 320 320 320 320 320 320 320 320 321
311 311 310 309 309 309 309 308 309 309 308 308 309 309 309 309 310 310 311 313 313 311 310 309 311 313 313 313 313 313 315 316 317 317 314 314 316 316 317 316 315 317 317 316 315 315 316 316 316 316 316 315 315 315 316 315 316 317 318 317 316 318 318 316 317 317 316 316 315 317 317 317 319 320 320 321 321 320 321 320 320 321 320 320 319 320 320 319
314 313 312 311 309 309 309 309 309 308 308 308 308 308 308 308 308 309 311 312 311 312 311 310 310 311 312 312 312 314 315 314 315 317 315 314 316 316 316 317 316 316 316 316 315 315 316 316 315 316 315 316 316 316 317 317 316 316 319 319 317 317 317 317 318 318 316 316 317 317 317 317 319 321 321 321 321 321 321 322 321 321 320 320 320 319 319 318
318 316 316 315 312 311 309 309 309 308 308 308 308 308 307 307 308 308 310 311 311 311 311 311 312 311 311 311 313 313 313 313 314 315 314 314 316 315 315 316 316 316 316 316 316 316 316 314 315 317 316 317 318 316 318 318 315 315 319 319 318 318 318 318 319 318 315 316 318 318 317 317 318 319 319 320 320 319 320 321 322 322 321 321 321 321 320 319
320 319 318 318 316 314 311 310 310 308 308 309 308 308 308 308 309 309 309 310 312 313 312 312 312 312 313 312 312 312 311 313 314 314 315 314 315 315 315 315 315 315 317 316 315 316 316 314 315 318 317 318 318 317 319 318 315 317 319 319 318 318 319 319 320 318 317 319 319 319 319 318 317 318 319 320 319 319 319 320 321 321 321 321 322 322 321 320
321 321 320 319 318 317 315 314 314 310 309 309 308 308 308 309 309 310 309 310 313 314 313 312 311 312 314 313 312 312 312 314 314 315 315 314 315 315 314 315 315 315 316 316 315 316 317 317 317 318 317 318 318 318 319 318 316 318 317 317 318 318 319 320 319 318 319 321 320 319 320 318 316 318 319 319 319 319 320 320 320 321 321 322 322 323 321 320
319 320 320 320 319 319 318 317 317 315 311 310 308 308 309 309 310 310 309 310 314 313 312 312 312 312 314 313 312 312 312 313 315 316 315 314 315 315 314 315 316 316 316 315 316 317 316 315 316 317 318 318 317 316 317 318 318 317 316 317 318 318 319 319 319 319 320 320 319 321 320 315 314 317 319 320 319 319 320 319 320 321 321 323 323 321 320 319
317 318 319 320 320 319 319 319 318 317 315 311 309 308 309 310 309 309 309 311 314 314 312 312 312 313 314 312 312 312 312 313 315 315 315 315 315 315 315 315 316 316 316 315 317 316 314 312 313 316 317 316 315 313 314 317 317 316 317 319 319 319 319 319 319 319 318 319 319 320 320 315 314 317 319 321 320 319 320 318 320 320 320 323 323 320 319 319
316 318 318 319 320 319 319 320 319 318 317 313 309 308 310 311 310 310 310 311 313 314 312 312 313 313 313 312 313 312 312 314 315 315 315 315 315 314 314 314 315 316 316 316 316 316 315 314 314 315 314 314 315 314 313 315 316 318 319 319 318 319 319 318 319 320 318 317 318 320 321 318 316 317 318 320 320 319 319 318 318 319 319 323 323 320 319 319
315 317 319 318 319 319 319 320 320 320 318 313 309 310 311 311 310 311 312 309 310 314 314 313 314 313 312 313 314 312 313 314 315 315 315 315 315 315 314 314 315 315 315 315 317 316 316 316 316 314 312 314 316 316 315 314 316 318 318 318 317 316 318 318 320 321 319 317 318 318 319 320 318 318 318 320 320 319 319 319 319 320 320 321 323 322 320 319
315 317 318 318 319 319 319 320 320 320 318 312 310 312 312 310 311 312 311 309 312 315 315 315 315 314 313 314 315 313 313 314 315 315 316 316 316 315 315 315 315 315 315 315 317 316 317 317 317 316 314 314 316 316 316 315 315 316 318 319 317 314 316 318 319 319 318 317 317 316 318 319 317 317 319 319 319 320 320 320 321 321 320 319 321 322 320 319
314 316 318 318 318 319 319 319 319 320 318 312 310 312 312 311 312 312 311 312 315 315 315 315 314 314 314 314 315 314 313 315 315 315 317 316 316 317 316 315 315 316 316 316 317 317 316 317 317 317 316 315 316 317 317 317 316 316 318 318 317 315 314 316 316 316 316 317 316 315 317 317 316 317 319 319 320 321 320 320 321 321 320 319 319 320 319 319
312 315 317 317 317 317 318 319 318 320 318 312 309 311 311 313 314 312 313 315 316 315 314 315 314 315 315 315 315 314 313 315 315 316 317 317 316 317 317 316 316 316 316 315 316 317 316 316 318 317 316 315 317 319 319 318 316 316 318 319 319 317 315 314 316 316 315 316 317 316 316 316 317 317 318 319 319 319 320 320 320 320 320 319 319 319 318 319
311 312 315 316 316 316 317 319 318 318 316 311 309 310 312 314 316 314 314 316 316 316 315 315 315 315 315 315 314 314 314 315 316 316 317 317 317 317 317 317 316 317 316 314 316 317 316 317 318 316 315 315 315 317 318 317 317 317 318 319 319 319 317 316 316 315 314 315 316 316 316 316 316 318 318 318 318 318 319 320 320 320 320 319 319 319 318 319
311 311 312 314 315 316 316 317 317 317 315 312 310 311 312 314 317 316 316 316 316 316 316 315 315 315 315 315 314 314 314 315 315 315 316 316 317 317 317 318 317 316 316 314 315 317 315 315 316 316 316 314 312 315 317 316 317 318 317 318 317 317 317 316 316 316 316 317 317 317 317 316 315 317 320 319 318 318 318 318 319 319 320 320 319 318 318 318
311 311 312 313 314 316 316 316 317 315 313 311 311 312 313 313 315 317 316 316 317 316 316 315 315 316 316 315 315 314 314 314 315 315 315 315 315 316 317 317 317 317 316 315 315 317 316 315 315 313 315 314 312 314 316 315 315 317 317 318 317 317 317 316 316 317 317 318 319 318 317 317 316 317 318 319 319 319 318 318 319 319 320 320 320 319 318 318
310 311 311 311 312 315 316 316 316 314 312 311 311 313 314 313 315 317 315 315 317 316 315 315 315 317 317 317 316 315 314 314 315 315 315 315 315 316 317 316 317 317 316 315 314 315 315 314 315 313 313 314 313 314 316 316 315 315 316 317 317 317 318 317 317 316 316 317 318 318 317 317 318 318 317 319 319 318 319 319 320 320 320 321 321 320 319 318
310 311 312 311 311 312 315 316 314 312 311 311 310 312 313 313 314 316 314 315 317 316 315 315 316 316 317 318 317 316 315 315 316 315 315 316 316 316 317 315 316 317 316 315 314 315 314 312 314 314 312 315 315 315 317 317 316 315 315 316 317 317 317 317 318 317 316 317 317 317 318 317 317 319 319 319 319 319 319 319 320 321 321 321 321 320 319 318
310 311 312 312 310 311 314 314 313 312 310 309 309 310 312 313 314 315 313 313 315 315 315 316 317 317 318 318 318 317 316 315 317 316 315 316 316 316 317 316 317 317 316 316 315 315 315 313 314 315 313 315 317 317 317 317 317 316 315 316 317 317 316 317 319 318 317 318 317 318 318 318 318 319 319 318 318 319 319 319 320 320 322 322 321 319 319 319
309 311 312 312 310 310 313 313 313 311 309 308 309 309 311 313 315 315 313 312 313 313 314 315 316 317 318 318 318 318 317 316 317 317 316 316 316 317 317 316 317 318 316 316 316 315 316 314 314 316 316 316 316 315 314 315 316 317 317 317 317 317 317 317 318 318 318 318 318 318 319 319 319 318 318 318 319 319 320 320 319 320 321 322 320 319 318 318
308 310 311 312 310 310 313 314 313 312 308 308 310 309 310 313 314 314 313 313 313 313 314 315 315 316 317 318 318 318 317 317 318 317 317 317 317 316 316 316 317 317 316 316 317 316 316 315 314 315 317 317 315 314 313 313 314 317 317 317 317 318 318 317 317 318 319 319 318 318 319 320 321 322 320 319 320 319 319 320 320 321 322 321 320 319 319 319
307 309 310 311 311 311 312 314 314 313 310 310 310 310 311 312 312 313 313 313 314 314 315 315 316 316 316 316 317 318 318 317 318 318 317 318 317 315 315 317 317 316 316 317 317 316 315 315 315 315 317 318 317 316 315 314 314 316 317 317 318 318 320 320 318 317 319 320 320 319 319 319 322 323 320 319 320 319 318 318 319 321 321 320 319 319 319 319
306 307 308 310 311 312 312 312 313 313 313 311 310 310 311 311 311 312 313 313 313 314 315 315 316 315 315 315 316 317 318 318 319 318 317 318 317 314 315 317 317 315 316 316 316 316 317 316 315 315 317 318 319 319 318 317 315 315 316 318 318 318 320 320 319 317 319 320 321 320 318 317 319 320 318 317 318 318 317 317 317 318 319 319 319 319 319 319
305 306 307 308 310 310 311 312 312 312 313 312 312 311 311 311 312 312 313 313 313 312 314 315 315 314 314 315 316 316 317 317 317 317 316 316 317 315 312 313 315 316 315 314 314 316 319 318 316 316 317 317 318 320 320 318 316 316 317 318 318 318 319 319 319 319 319 319 320 319 319 318 318 318 317 317 317 317 318 318 318 317 317 318 318 319 319 318
304 305 306 308 308 308 308 310 312 312 312 313 313 312 312 312 312 312 312 313 313 312 313 314 314 314 314 314 315 315 315 316 316 316 315 315 316 316 312 310 313 314 314 312 313 317 320 318 317 318 317 317 318 319 320 319 318 317 318 317 318 318 319 320 320 319 319 319 320 319 319 320 319 317 318 318 317 318 318 318 319 318 318 318 318 318 318 318
303 304 305 307 309 309 307 307 310 311 312 312 312 313 313 312 312 313 312 312 313 313 313 314 314 314 313 313 314 314 314 315 315 315 315 315 315 315 314 312 312 312 312 313 312 317 320 317 316 319 318 317 318 318 319 319 319 318 318 318 318 318 319 320 319 319 319 319 319 319 320 320 319 318 318 318 318 319 318 319 319 319 318 318 318 318 318 318
303 304 305 306 307 309 308 307 307 309 311 312 312 312 313 313 313 313 312 312 312 313 313 313 313 313 313 314 314 314 315 315 315 314 314 315 315 314 314 315 313 310 312 314 314 315 317 316 316 318 317 317 317 317 317 318 318 318 318 319 319 319 319 319 318 318 319 319 318 319 319 319 318 318 318 318 319 319 319 319 319 319 318 318 318 318 318 318
302 303 304 305 306 307 307 307 306 307 309 310 311 312 312 313 313 313 313 312 312 312 312 313 313 313 313 314 314 315 315 315 315 315 314 314 315 314 314 315 315 311 311 314 315 314 315 316 317 317 317 317 317 317 317 317 318 319 318 318 319 320 320 319 318 318 319 319 319 319 320 319 318 318 318 318 319 319 319 319 319 319 319 318 318 318 318 318
301 302 303 304 305 305 306 307 307 307 307 308 310 311 312 312 312 312 313 313 313 313 312 312 313 313 313 314 314 315 315 315 315 315 315 314 314 314 314 314 316 315 312 313 315 314 314 315 316 316 316 317 317 317 317 317 318 318 318 318 318 319 319 320 320 319 319 319 319 320 320 319 318 318 319 319 319 319 319 319 319 319 319 319 318 318 318 318
301 301 302 302 303 304 304 306 307 308 308 308 308 310 311 311 312 312 313 313 313 313 313 313 313 313 314 314 314 314 314 315 315 315 315 315 314 314 314 314 315 316 313 312 314 315 313 313 315 316 317 318 317 317 317 317 318 318 318 317 317 317 318 319 319 319 319 319 319 319 319 318 318 318 318 318 318 318 319 319 319 319 319 318 318 318 318 318
Wind_Speed
21 21 21 21 20 19 19 18 17 16 15 15 14 14 13 13 13 12 12 12 12 12 13 13 12 11 10 8 6 5 5 5 4 4 4 5 5 4 4 5 5 5 3 2 2 1 2 2 3 4 2 3 3 3 4 4 6 5 4 5 4 4 2 3 4 2 1 2 8 11 12 10 6 8 8 6 9 8 6 7 9 11 12 13 11 8 6 7
22 21 21 21 21 20 19 18 17 16 15 15 14 13 13 12 12 12 12 13 13 13 13 13 12 11 10 8 6 5 4 5 4 5 7 6 5 5 5 5 5 5 3 3 2 2 3 3 4 5 4 4 3 3 4 3 5 4 3 5 4 0 3 3 0 2 2 1 7 10 10 8 4 7 8 6 8 10 9 9 11 12 11 14 15 13 12 8
22 22 22 21 21 20 19 18 18 17 16 15 14 13 13 12 12 12 12 13 13 13 13 13 12 11 10 8 6 4 4 4 5 6 8 6 6 6 5 6 6 5 5 4 5 5 5 4 5 5 5 4 3 4 4 4 5 2 3 5 1 3 5 5 3 5 5 3 5 8 8 7 3 5 7 7 8 9 10 10 11 12 13 15 17 16 16 13
23 23 22 22 21 20 20 19 18 17 16 15 14 13 12 12 12 12 13 13 13 13 13 13 11 11 10 7 5 4 3 4 7 9 8 7 7 7 7 6 6 6 5 5 5 6 5 4 5 5 6 4 4 5 4 4 4 1 3 3 3 2 2 5 4 6 6 4 4 6 6 7 5 4 7 7 8 7 10 12 12 12 11 14 17 16 16 16
24 23 22 21 21 20 20 19 18 17 16 15 14 13 12 12 12 13 13 13 13 13 13 12 11 11 10 8 6 5 5 4 7 10 8 7 7 7 8 7 6 6 6 5 4 5 5 5 5 6 7 4 6 6 4 4 3 2 1 3 5 2 1 5 4 4 5 4 3 5 5 6 5 6 9 10 9 6 4 6 9 9 7 9 14 13 14 17
24 24 23 22 21 21 20 19 18 17 16 15 14 13 12 12 12 13 13 13 13 13 12 12 11 11 10 8 7 8 7 2 4 10 8 7 8 8 8 7 7 6 6 5 4 5 5 6 7 7 6 4 6 4 4 4 4 2 2 3 3 4 3 4 3 4 3 1 2 3 3 3 5 9 10 13 15 9 4 5 5 7 6 7 12 13 13 15
25 25 24 23 22 21 20 19 18 17 16 15 14 13 12 12 12 13 14 14 13 12 12 12 12 12 9 8 7 9 8 4 3 8 7 8 9 9 8 8 7 7 6 5 4 5 6 8 8 6 5 3 4 3 4 4 4 4 1 5 3 4 4 3 2 3 3 1 2 2 2 5 8 8 6 11 19 16 13 14 12 10 10 10 12 14 13 14
25 25 24 24 23 22 21 19 18 17 16 15 14 13 13 12 13 14 14 14 13 13 12 12 13 11 9 8 7 8 8 4 5 7 8 11 11 10 9 8 7 6 6 5 5 5 6 8 7 6 4 2 3 5 4 4 4 4 2 6 3 3 3 4 3 3 3 2 2 3 5 5 7 6 6 12 17 17 16 18 20 18 16 15 15 15 15 15
24 24 24 24 23 22 21 19 18 17 16 16 15 14 13 13 14 15 15 14 14 13 13 13 13 11 10 9 7 7 7 8 7 8 11 13 12 11 9 8 6 6 4 3 5 5 6 6 6 5 2 4 4 5 3 4 1 1 4 6 4 4 3 3 3 4 3 3 2 5 6 4 5 7 11 17 18 17 16 18 21 21 20 19 18 19 19 18
24 24 24 24 24 23 21 20 18 17 17 16 15 14 13 14 15 15 15 15 14 13 13 14 13 12 10 9 8 6 7 10 9 10 13 13 12 9 8 6 5 5 3 3 5 6 5 5 5 4 2 4 4 3 1 2 2 3 5 4 3 3 3 3 2 4 4 3 4 6 5 3 3 4 9 11 12 17 18 17 19 20 20 21 21 21 22 22
23 24 24 23 23 23 21 19 17 17 17 16 15 14 14 14 15 15 15 15 15 14 14 14 13 12 10 9 9 6 8 11 11 13 14 13 11 7 6 4 3 4 3 2 5 6 6 6 7 5 3 6 6 4 3 3 3 3 4 3 4 3 3 3 3 4 4 2 4 4 5 5 3 5 14 10 7 12 13 12 13 16 17 18 20 21 22 23
22 22 23 23 23 21 19 18 17 17 16 16 15 15 15 15 15 15 15 15 15 15 15 14 13 12 10 10 9 5 9 12 11 14 15 13 10 6 4 3 2 3 4 3 4 6 6 8 8 3 3 6 6 5 4 6 3 2 3 3 6 6 5 7 5 4 5 2 3 1 6 10 9 14 23 16 11 13 11 11 11 13 16 18 19 20 22 23
22 22 23 23 22 20 19 18 18 17 17 16 15 15 15 16 16 16 15 15 15 16 15 14 13 12 10 9 7 5 8 10 12 15 15 13 10 6 3 3 3 3 4 4 5 6 7 8 6 3 6 4 2 4 5 5 2 3 4 3 3 6 6 8 6 4 5 3 4 1 5 7 10 18 20 13 15 16 14 15 13 13 16 18 20 21 23 23
22 22 23 23 22 21 20 19 19 18 17 16 16 16 16 16 16 16 16 15 15 16 15 14 13 12 11 7 6 9 9 8 12 16 15 14 10 6 4 4 3 3 4 4 5 6 6 6 5 5 6 4 5 7 5 4 3 3 2 3 4 5 3 8 6 6 6 4 5 3 5 7 6 8 10 11 15 13 12 14 13 13 13 14 18 20 21 22
21 22 23 23 22 21 20 20 20 19 18 18 17 16 16 16 16 16 16 15 15 15 15 14 13 11 9 6 6 11 11 9 11 15 16 14 11 7 6 5 3 3 4 4 4 5 6 7 6 5 6 7 8 6 3 4 3 2 2 4 4 3 3 8 5 5 3 2 7 6 5 7 5 4 7 9 11 10 11 12 11 12 12 12 15 18 19 20
20 21 22 22 21 21 20 19 19 19 19 18 18 17 16 15 15 15 15 15 15 15 14 13 13 11 6 6 8 11 13 12 11 13 15 15 12 9 7 6 4 2 3 3 4 5 6 6 5 6 6 6 5 4 3 3 3 4 4 4 3 4 4 4 4 2 1 2 7 9 6 5 2 4 3 4 7 7 9 10 11 12 12 11 13 17 18 19
20 20 21 21 21 20 20 19 18 18 17 17 17 16 15 15 15 15 15 15 14 15 14 11 12 10 6 5 7 9 13 15 14 14 15 15 13 10 8 7 5 3 3 3 3 3 3 4 5 5 4 4 4 4 4 4 5 5 4 4 3 4 5 3 2 3 3 3 6 9 10 11 9 6 6 7 9 10 11 14 16 15 14 13 15 19 23 25
19 20 20 20 20 20 20 19 19 18 17 16 15 14 15 15 16 16 15 15 14 13 12 10 10 7 6 8 9 9 15 16 15 14 14 15 13 12 10 7 6 5 4 3 3 3 2 4 4 3 3 5 4 5 5 3 2 3 4 4 4 4 6 6 1 4 5 4 6 8 10 14 15 14 15 15 15 15 17 19 19 19 19 17 18 22 26 31
18 19 19 20 19 19 19 19 19 19 18 17 15 15 15 14 13 13 15 16 14 9 6 10 13 5 1 12 16 12 14 14 14 15 14 15 14 12 10 7 7 6 5 5 4 3 3 3 4 4 5 7 7 8 6 1 3 1 1 2 4 3 6 6 2 5 3 3 8 10 12 15 15 15 16 17 18 18 21 21 19 19 19 19 22 24 27 34
19 18 19 19 19 19 18 18 18 18 19 18 19 18 14 13 10 7 12 15 15 9 3 10 16 6 2 11 17 13 11 13 13 15 16 16 15 12 9 8 7 6 5 3 3 3 3 4 5 6 6 7 9 8 2 3 4 2 2 3 5 5 6 5 4 6 2 3 9 11 12 15 17 15 16 19 19 19 22 23 22 20 19 20 23 27 32 35
21 20 20 19 19 19 18 18 18 18 20 19 23 19 10 12 8 5 12 12 16 15 6 10 16 9 2 8 16 14 10 11 12 15 17 16 16 12 9 10 7 6 4 3 4 3 3 5 7 7 3 1 3 4 1 1 1 3 4 4 5 5 7 7 1 6 4 2 7 10 12 15 16 16 18 19 18 19 23 24 23 22 21 22 24 27 31 29
21 21 21 21 20 20 19 19 18 19 20 20 25 19 10 13 8 6 12 8 15 22 13 9 13 11 6 6 14 15 10 7 9 15 17 17 17 12 10 11 8 5 6 5 3 3 4 7 7 4 5 5 3 2 3 4 3 3 4 4 5 3 5 7 1 6 4 3 6 9 10 12 14 17 19 21 20 22 26 25 23 23 23 25 25 24 23 20
20 20 21 21 21 21 20 20 19 20 21 20 24 19 11 15 10 6 11 5 7 21 19 13 11 9 9 7 12 15 11 7 8 14 19 19 16 12 10 12 10 6 7 8 7 5 5 5 3 4 6 4 3 4 5 4 4 5 4 4 4 1 2 4 2 3 3 5 5 9 10 10 13 16 19 24 27 26 27 25 24 24 25 28 28 24 22 19
16 18 19 21 21 22 21 21 21 21 22 21 22 19 12 14 13 7 8 4 1 11 19 20 14 11 12 10 11 14 10 6 7 13 21 20 13 10 10 11 11 7 7 10 10 9 5 2 3 3 4 5 5 6 7 5 4 6 7 6 5 4 4 5 3 6 7 5 1 7 10 8 10 13 12 13 17 19 20 21 21 22 25 29 30 28 26 25
12 13 15 18 20 21 22 22 22 22 23 22 20 19 13 11 13 9 6 4 3 6 11 17 16 14 17 14 11 11 7 7 8 11 21 21 12 9 7 7 8 8 10 11 10 11 5 5 5 5 4 6 7 6 7 6 4 6 8 9 9 7 6 8 5 7 7 3 2 3 7 4 4 8 8 4 7 11 13 14 17 20 22 23 25 27 28 27
9 9 10 13 16 19 19 17 20 23 23 23 20 19 16 12 11 10 6 3 4 5 6 10 12 12 16 15 13 10 4 8 11 12 20 22 15 9 5 4 4 5 8 9 6 5 2 4 4 6 6 6 6 5 8 7 5 4 3 5 7 8 6 7 5 3 5 4 1 1 4 6 4 7 10 7 9 13 11 11 15 18 18 17 19 21 22 22
11 10 9 10 13 17 16 12 17 23 21 19 20 20 16 13 12 9 5 4 5 7 8 8 10 10 11 13 17 13 2 7 12 11 20 23 17 11 7 6 4 2 3 4 3 2 5 6 5 6 7 6 6 5 7 9 6 2 1 1 3 4 5 4 3 4 5 7 6 4 4 8 9 7 10 11 12 14 11 10 13 16 17 16 15 14 15 16
14 13 11 13 12 11 12 12 13 18 18 16 19 21 16 15 13 8 4 6 3 8 7 7 9 10 12 15 19 11 3 9 8 10 21 23 17 11 8 8 8 7 8 6 6 1 4 8 9 9 8 6 5 0 5 10 6 1 2 1 2 1 2 2 2 4 3 6 7 6 7 6 7 3 8 10 10 11 10 10 11 13 14 12 10 9 10 12
15 16 15 15 13 10 12 14 11 13 16 15 16 20 17 16 12 5 3 5 3 6 5 9 11 10 13 15 13 7 5 5 1 9 20 20 16 9 5 7 8 8 9 7 5 2 3 1 4 7 7 5 3 6 2 5 2 3 5 4 4 3 1 2 3 3 2 5 7 7 10 5 8 3 8 6 6 8 8 9 9 11 10 7 7 9 10 11
16 18 18 17 18 18 16 16 13 11 13 14 16 20 20 15 8 4 5 4 3 4 5 9 10 11 15 14 9 7 6 2 4 12 12 9 12 7 2 4 4 4 5 4 4 2 3 2 1 3 2 2 6 7 6 3 4 7 7 4 3 3 2 2 3 1 2 7 7 9 15 9 7 3 7 5 5 7 7 7 7 8 7 5 6 8 10 11
19 20 20 20 24 23 21 19 15 11 12 13 18 23 18 8 3 7 6 0 1 4 6 6 8 12 18 15 9 9 7 4 8 14 9 5 8 6 4 5 2 2 3 5 5 3 2 2 1 2 2 5 7 6 5 4 4 5 4 4 3 3 2 3 4 3 4 8 3 3 9 11 10 4 4 4 4 7 7 8 8 7 7 6 5 8 10 12
21 22 23 24 25 25 25 21 15 13 11 13 23 23 13 4 3 7 6 3 1 6 8 8 9 12 16 14 8 9 9 6 10 12 9 8 8 8 10 8 7 6 5 7 6 3 3 5 4 4 3 6 6 5 4 2 3 4 4 5 4 4 4 4 5 4 6 7 1 4 2 7 11 8 8 9 6 7 8 9 8 8 10 9 7 9 12 12
22 23 24 26 27 28 27 21 16 15 13 17 25 17 5 5 6 8 9 5 2 3 6 8 10 12 15 12 8 9 8 6 10 10 8 9 8 9 12 12 12 9 5 7 7 4 4 3 6 6 3 8 9 6 5 4 6 8 7 7 6 5 5 6 6 5 6 5 2 4 2 5 7 7 13 18 15 13 13 12 10 10 16 18 13 12 15 16
21 23 26 27 29 31 28 23 21 19 18 22 21 9 4 8 7 10 13 7 2 3 4 8 11 13 13 8 6 10 7 5 11 10 7 9 7 8 11 13 15 10 3 5 6 7 7 4 8 10 6 12 13 8 5 5 7 9 7 6 6 6 6 6 5 5 6 3 0 3 3 4 3 1 3 7 8 12 14 15 14 15 21 26 23 22 24 24
18 21 25 25 28 33 32 28 27 24 23 24 12 3 8 10 7 10 10 5 4 3 5 10 11 11 10 3 3 9 4 2 10 9 7 10 9 9 10 11 15 12 6 7 5 7 10 6 8 8 6 16 15 6 4 5 5 6 5 6 7 5 6 5 2 2 2 4 3 4 4 5 4 4 3 2 2 7 11 14 15 16 22 26 27 30 32 29
14 17 22 23 27 34 36 34 31 27 25 21 8 3 10 9 6 8 6 4 6 8 11 10 7 7 8 3 2 6 1 1 9 7 5 9 8 9 10 9 14 15 11 9 3 4 7 3 6 5 3 9 7 2 4 2 2 5 6 6 2 2 3 5 3 3 2 5 6 5 7 8 7 10 10 12 10 9 9 11 13 16 22 24 26 32 35 32
11 14 20 24 26 29 33 34 31 30 28 20 9 8 10 7 4 1 1 4 10 14 12 8 7 7 9 6 5 8 5 3 8 7 5 7 6 10 12 9 13 17 17 13 4 3 5 1 2 3 2 3 2 3 2 2 1 3 5 5 3 4 2 4 5 2 3 8 6 5 10 10 7 6 5 11 11 9 10 11 12 16 19 20 25 34 35 32
11 12 18 24 26 27 30 31 30 30 24 13 9 11 8 8 6 2 2 2 11 15 10 7 8 9 10 9 7 11 10 6 8 8 6 6 5 10 14 9 10 18 21 17 6 1 4 4 1 1 0 3 3 1 4 1 1 0 1 1 2 2 4 5 6 5 6 8 6 7 11 10 9 7 4 8 11 10 11 12 11 13 15 16 22 29 30 29
12 12 15 20 25 26 27 30 32 28 15 5 8 9 5 8 7 2 3 3 6 12 11 10 9 7 10 10 9 12 12 10 11 9 7 7 5 10 16 11 10 17 22 18 8 2 4 6 3 0 1 4 5 5 7 6 3 0 2 3 2 2 4 4 5 5 5 7 7 8 10 9 8 9 10 11 11 12 11 11 10 11 15 17 18 22 24 24
13 10 10 15 20 23 24 29 32 22 7 2 6 4 3 7 7 4 3 4 3 5 7 11 12 10 10 10 9 11 11 11 11 9 8 9 7 7 13 14 10 12 20 20 11 4 4 5 5 2 0 3 6 8 10 10 9 6 6 7 5 3 1 2 4 5 4 5 6 7 10 10 4 4 7 7 7 10 10 9 8 10 15 17 18 21 21 20
13 8 7 11 15 19 26 26 20 11 3 2 4 4 5 7 7 8 7 4 2 1 1 4 7 8 9 10 10 10 9 10 11 9 8 10 10 6 9 15 12 11 14 14 12 9 6 6 6 4 4 7 6 5 6 8 8 9 9 10 10 8 5 4 6 5 2 4 5 5 10 11 2 4 2 3 4 6 8 7 6 10 14 14 16 20 18 16
13 8 5 9 12 20 26 17 6 6 4 2 4 5 7 5 5 8 7 4 2 2 2 2 3 5 8 9 10 10 9 9 10 11 8 11 14 7 7 14 16 17 14 9 12 12 5 4 6 6 6 5 2 3 2 0 2 4 6 7 9 8 7 8 7 5 4 4 3 3 9 11 1 6 3 3 3 4 5 5 8 12 14 12 14 18 15 14
14 11 5 7 14 23 23 9 4 6 3 3 5 6 8 6 3 5 6 6 2 1 1 2 2 3 3 3 7 10 10 9 10 12 10 11 10 4 4 11 15 17 13 7 8 8 3 2 7 6 3 2 2 3 2 1 1 4 4 4 5 8 10 8 4 3 4 5 4 4 9 10 1 6 2 3 3 3 5 8 12 12 11 11 13 13 13 15
14 14 10 9 16 25 19 7 7 8 4 6 7 8 10 8 6 7 7 7 6 2 2 3 2 1 1 2 1 6 8 7 9 11 9 8 5 3 4 10 13 14 10 4 5 10 7 5 7 6 5 4 5 5 4 3 4 5 6 7 9 12 11 3 1 2 4 8 11 8 10 11 1 6 3 3 4 4 6 10 12 11 10 10 9 12 15 18
9 11 14 16 21 28 22 11 9 9 9 10 8 9 11 7 10 15 10 6 8 4 2 3 1 2 1 2 3 1 2 2 4 5 4 4 3 2 2 7 12 14 8 1 3 11 9 4 7 8 8 8 8 6 5 6 6 4 8 12 14 15 13 6 2 6 8 11 13 9 10 15 10 3 5 5 5 5 7 9 11 14 14 10 12 18 19 18
6 5 9 14 21 26 25 21 17 11 9 11 8 9 13 9 9 17 15 9 9 9 4 2 1 2 2 1 0 1 2 1 1 1 2 3 2 3 2 3 9 12 5 3 4 8 2 2 7 11 11 11 8 3 5 8 8 8 11 14 15 15 16 10 5 8 11 11 11 12 13 19 22 17 10 5 5 6 7 9 12 16 18 16 19 23 22 19
7 5 7 8 11 14 15 17 17 13 11 13 7 7 15 15 9 13 16 12 12 13 8 3 5 5 4 6 6 4 5 4 2 2 4 4 1 2 2 2 6 9 3 1 6 6 2 3 8 10 13 12 10 5 7 11 11 13 14 15 15 15 15 12 10 13 14 11 12 14 15 18 24 24 19 13 9 8 8 12 16 18 19 22 24 24 22 22
9 8 12 10 5 4 6 8 11 13 16 16 9 8 15 18 12 10 12 13 13 15 9 4 8 11 10 12 9 6 7 8 7 6 6 5 3 1 0 1 4 6 3 2 4 4 3 4 6 8 11 14 14 12 6 7 8 11 14 15 16 16 16 15 16 18 17 13 13 14 15 18 22 24 21 16 14 15 15 19 22 21 21 23 22 22 23 25
13 9 11 11 6 3 2 3 4 9 14 14 11 11 13 17 18 12 9 9 10 13 12 8 11 16 16 14 10 8 8 8 7 8 8 7 6 4 3 3 3 3 3 3 2 2 3 4 6 8 10 14 16 15 13 12 11 10 13 14 14 16 19 20 20 22 22 19 17 18 21 22 21 22 23 21 20 24 27 27 23 20 21 20 20 23 27 30
16 12 8 8 8 7 5 4 3 4 7 9 10 11 12 16 18 14 12 13 10 10 15 15 14 15 16 15 12 11 11 10 10 11 10 9 7 5 5 5 2 1 2 3 1 1 3 5 7 7 6 11 15 16 16 14 13 13 14 14 14 16 20 22 20 18 18 18 20 22 23 22 19 20 24 29 30 26 26 29 24 19 18 17 19 25 30 32
19 16 11 6 6 9 9 8 5 3 4 5 7 9 11 16 19 14 13 18 16 12 15 19 18 13 13 15 15 13 15 15 15 15 14 13 12 11 9 7 6 4 2 3 3 2 4 4 4 4 5 9 12 16 18 16 14 13 13 15 18 21 19 15 13 13 15 17 19 19 18 16 17 18 19 26 28 21 21 28 26 23 23 21 23 29 32 34
20 18 15 10 6 7 9 7 6 6 5 4 6 8 7 10 16 16 11 14 19 18 18 21 18 11 10 14 17 19 21 21 19 19 16 15 18 19 16 13 11 8 6 5 3 4 5 3 3 5 5 7 12 15 14 12 10 9 12 18 22 22 19 15 13 17 20 17 14 13 13 14 16 18 17 20 21 19 22 28 27 30 34 32 29 31 34 35
Wind_Direction
198 198 199 200 199 198 199 198 199 200 201 202 203 206 206 208 208 207 206 204 203 202 201 198 198 200 199 202 209 218 213 207 211 217 217 224 231 229 231 218 207 213 217 212 181 125 129 168 182 154 149 168 158 155 173 166 162 186 216 228 234 222 183 150 187 174 6 109 142 162 177 193 177 175 202 211 219 225 227 215 218 230 228 236 244 237 227 200
198 201 201 201 200 199 200 199 200 200 202 204 205 208 208 211 211 209 208 205 204 201 200 199 199 200 199 201 211 218 215 210 210 228 232 228 228 235 235 219 210 215 217 197 173 187 198 202 187 176 188 179 159 163 173 165 176 213 247 230 242 274 75 66 45 93 29 30 148 163 183 205 183 164 189 211 217 209 224 225 217 231 231 237 243 237 234 222
200 203 204 203 202 201 201 200 200 201 203 204 206 209 210 212 213 212 209 207 204 201 200 200 200 200 199 199 211 215 213 219 214 227 235 230 233 235 226 220 216 212 211 200 183 195 211 201 185 190 200 187 167 175 178 180 193 234 257 236 258 68 73 64 53 80 57 32 150 162 175 201 191 155 180 217 232 212 227 230 213 221 223 232 242 238 234 232
202 204 206 205 204 203 202 202 201 202 203 205 207 210 212 212 213 212 210 207 204 202 200 200 200 200 198 200 208 200 204 229 218 226 236 233 234 225 217 217 210 205 202 200 189 188 193 193 189 192 208 190 157 181 182 175 193 196 229 276 28 44 75 84 82 90 70 46 136 143 159 201 196 177 194 218 241 225 231 235 223 228 225 223 236 243 238 236
201 204 207 206 205 204 203 203 203 204 205 206 208 210 213 212 212 210 207 206 203 203 201 200 200 198 198 201 201 180 185 215 204 215 229 224 219 208 208 207 196 195 189 184 179 187 188 191 188 192 216 187 159 187 163 154 210 197 193 6 31 353 36 92 100 123 95 62 115 143 168 194 186 207 220 221 235 236 243 235 218 234 239 214 229 246 245 240
199 203 206 206 206 205 204 205 205 207 207 208 209 210 213 212 211 207 203 203 203 203 201 200 198 196 198 200 200 190 200 248 195 204 214 207 201 193 194 191 183 180 174 165 166 190 190 193 195 196 211 182 173 187 118 151 220 227 138 81 53 17 44 90 110 161 147 91 154 168 173 183 206 229 229 225 235 247 292 274 220 225 237 223 237 250 248 245
199 201 204 205 205 205 205 207 208 209 209 210 210 210 212 211 209 204 200 201 201 202 202 200 196 194 198 200 202 203 220 270 200 196 194 185 180 175 176 171 172 170 164 159 177 202 193 199 206 200 200 168 171 153 107 155 217 267 142 120 90 43 58 78 98 170 158 182 191 166 215 223 229 242 234 229 238 244 260 267 256 247 248 241 244 252 251 250
201 201 204 204 204 205 206 209 210 211 211 211 212 212 212 210 207 201 198 200 199 201 201 199 195 193 199 198 200 210 217 209 177 174 165 164 160 156 157 155 162 161 158 167 189 201 198 206 202 197 197 122 141 140 132 175 200 261 135 124 117 77 81 85 105 149 141 194 202 194 231 231 236 266 272 247 244 245 248 258 260 258 258 252 248 253 253 250
203 202 203 204 204 205 206 209 211 212 213 213 213 213 213 210 205 200 199 198 196 198 197 197 193 194 200 196 206 218 200 185 176 165 158 156 152 151 148 144 155 153 151 171 183 188 197 207 195 204 193 96 135 136 158 215 183 74 118 130 140 113 98 108 136 149 158 196 171 206 224 215 243 274 272 255 246 245 241 244 255 260 260 257 253 254 256 255
204 205 205 204 205 206 208 210 212 214 214 215 215 214 214 210 205 201 200 198 195 194 193 195 191 195 200 192 214 223 183 184 181 169 167 160 156 156 151 146 148 146 154 197 186 184 202 209 188 195 133 112 139 119 189 258 57 90 121 126 133 125 118 131 162 160 187 198 178 232 238 202 238 261 260 251 232 234 239 242 252 259 258 257 257 255 256 257
203 206 206 205 207 208 211 213 215 217 216 216 216 216 214 209 205 202 202 200 195 191 190 192 190 196 196 194 222 224 178 185 184 178 176 168 166 164 158 161 154 143 145 196 188 183 199 190 170 177 160 145 140 107 83 98 86 104 131 154 167 163 155 175 195 172 203 198 174 252 272 239 214 233 246 242 222 226 231 239 247 258 257 254 256 255 254 254
204 204 206 206 209 210 213 215 216 217 217 217 217 216 213 208 204 203 202 200 194 190 189 190 189 193 194 203 232 223 178 185 184 184 183 178 175 168 165 170 169 160 146 172 190 177 177 168 163 163 134 150 149 125 113 111 93 125 171 220 185 195 207 188 188 176 214 204 133 260 273 246 208 227 246 239 233 240 234 239 243 255 259 257 257 255 256 255
205 202 203 205 208 209 212 213 213 214 213 215 217 215 211 206 202 201 201 198 194 191 188 190 190 192 198 208 224 201 180 185 186 188 189 188 183 171 173 166 168 169 152 175 188 167 165 164 164 146 130 141 131 116 118 118 131 169 189 268 210 217 212 175 170 165 208 194 131 213 270 258 213 223 241 231 231 244 245 250 249 248 254 257 259 258 259 259
204 201 200 201 204 206 208 209 209 209 209 210 212 212 210 205 202 199 197 195 193 190 187 190 189 191 203 213 210 198 187 180 186 192 193 193 191 181 174 168 164 156 143 157 168 158 159 152 146 148 134 108 110 125 131 142 193 188 178 247 235 247 178 145 161 170 196 191 157 214 258 275 264 209 204 215 233 243 249 256 254 248 244 247 258 264 263 262
200 198 197 197 199 201 204 204 205 205 205 205 205 207 207 203 201 197 195 192 191 189 187 190 189 190 207 218 208 201 193 185 188 193 196 195 191 185 181 173 155 139 134 134 144 140 138 136 130 128 114 111 134 156 168 165 196 209 214 217 204 240 166 137 153 179 193 159 171 208 254 263 273 121 151 214 237 241 252 262 261 254 245 240 254 267 267 265
193 192 193 193 193 196 199 200 202 202 201 201 200 201 200 199 197 194 192 189 188 188 184 188 191 196 215 207 200 202 198 197 193 191 196 195 186 183 184 175 163 154 140 136 138 127 129 132 125 125 126 139 171 200 199 191 206 200 230 242 185 217 225 149 135 184 211 123 184 216 261 273 245 99 129 235 251 244 251 267 267 260 252 243 250 265 268 267
186 187 189 190 190 191 193 195 198 197 197 196 194 193 191 189 188 189 188 186 187 185 184 188 189 204 236 207 194 202 202 201 194 190 193 193 187 181 177 170 170 162 140 147 141 131 131 133 136 141 166 203 207 209 205 216 218 194 211 248 235 239 258 239 135 136 175 210 222 223 246 264 266 272 266 262 263 255 256 266 266 263 258 250 252 261 266 267
181 184 186 187 187 187 188 189 189 189 189 187 185 182 181 181 182 183 181 182 180 176 186 188 179 200 233 203 197 203 205 203 195 191 188 188 188 182 178 176 169 154 153 172 160 171 170 156 184 194 191 206 200 203 212 228 249 206 191 229 250 232 241 256 210 144 169 207 246 242 249 262 266 268 265 263 260 256 260 266 264 261 259 256 254 256 261 266
177 180 183 182 183 183 184 184 182 182 178 175 173 169 168 167 170 177 179 177 171 170 193 185 184 206 194 186 196 202 202 197 190 190 185 186 188 180 181 178 169 170 185 194 164 172 187 173 210 226 203 203 201 211 223 341 18 8 208 275 281 256 249 258 122 127 185 238 252 253 259 268 271 270 268 268 265 262 264 266 264 259 255 253 253 251 255 262
176 178 179 180 181 180 182 181 180 179 173 170 165 159 156 155 153 170 182 183 183 195 232 181 190 226 63 174 191 188 182 182 183 189 189 188 179 167 172 169 167 193 215 208 147 159 220 211 208 220 227 218 203 208 216 47 34 342 303 285 274 275 275 273 108 119 167 263 262 260 262 270 274 275 275 273 271 269 267 265 263 259 252 248 248 251 256 262
177 178 179 181 183 183 184 182 182 181 177 174 166 158 157 166 165 169 179 195 206 210 221 185 194 215 179 175 187 176 159 167 180 189 190 185 176 168 172 174 183 202 184 130 109 137 213 230 228 224 224 109 173 180 138 57 321 278 266 270 266 259 268 281 108 132 154 226 266 269 267 267 270 275 276 273 269 263 261 261 261 260 257 253 248 250 258 262
180 181 180 183 185 185 186 184 184 183 183 182 174 167 167 177 177 168 177 204 218 213 221 201 199 213 208 183 188 181 163 159 179 189 185 178 181 185 174 181 210 198 150 141 146 164 210 231 232 191 102 82 98 137 194 233 244 241 242 255 264 264 279 283 123 124 158 218 274 283 277 268 268 272 270 265 261 257 257 258 261 264 262 259 255 253 257 256
187 184 182 184 186 186 187 186 186 187 187 187 184 179 177 184 183 167 184 212 217 212 222 219 207 213 208 190 185 184 178 173 173 183 185 177 184 197 178 186 214 188 161 189 200 207 217 223 213 121 119 133 143 165 187 208 224 224 230 241 247 256 299 272 144 116 212 223 285 294 282 270 261 259 261 258 255 256 259 260 261 260 258 258 258 258 258 253
190 187 186 186 187 189 188 188 189 190 190 192 191 189 184 190 193 181 194 232 246 206 219 222 218 212 205 197 188 187 191 195 172 182 190 180 175 192 189 198 211 195 191 204 211 229 224 97 80 131 166 183 165 170 187 201 220 218 220 233 249 252 263 267 303 325 282 229 273 294 280 267 239 237 250 252 246 249 254 257 258 252 251 257 259 261 262 260
188 188 186 186 189 191 189 191 193 192 195 197 195 193 191 188 189 187 195 240 252 191 210 220 220 219 215 209 190 181 200 207 184 189 192 184 177 181 186 203 211 209 208 203 214 238 225 101 115 147 174 196 182 182 195 207 230 220 211 221 244 264 277 280 306 334 303 249 121 324 298 286 191 220 244 232 229 244 240 238 247 250 252 255 257 263 267 266
193 197 189 187 190 190 190 195 197 197 200 201 196 193 195 185 175 182 189 245 247 179 167 197 204 212 215 207 176 162 217 216 196 197 188 185 185 179 172 179 204 235 210 194 219 249 182 123 143 147 156 180 191 210 198 199 239 242 199 212 240 259 272 278 291 303 293 296 303 11 304 293 263 243 250 246 251 259 250 238 247 255 258 254 253 261 268 270
201 210 209 204 199 192 189 194 202 202 201 203 199 193 192 182 169 167 178 253 244 167 149 173 187 192 193 186 174 172 214 170 174 190 186 186 188 186 199 178 167 237 169 156 224 222 142 163 177 159 160 175 201 224 188 191 232 258 56 9 213 230 242 249 272 254 278 315 291 207 210 276 279 249 232 231 247 260 259 254 257 260 262 261 256 256 263 271
210 213 218 222 219 203 194 199 209 208 203 203 201 194 187 176 168 157 188 245 209 146 148 165 175 180 169 167 176 180 130 137 156 182 181 186 186 188 222 209 192 197 172 181 221 187 134 176 183 174 182 198 201 183 160 189 221 55 74 36 104 133 232 211 250 262 282 316 286 197 171 257 281 207 186 206 234 253 255 257 263 264 266 264 255 251 262 270
221 217 220 228 232 223 213 212 208 204 206 204 195 190 180 169 165 156 218 235 155 124 144 160 165 171 159 161 176 175 135 141 145 169 174 185 183 179 229 218 212 194 177 209 235 50 51 178 194 189 199 207 142 54 58 197 201 126 130 94 90 106 111 167 244 278 287 283 267 185 163 248 285 186 157 184 225 238 249 259 261 265 269 260 250 263 271 264
233 228 227 229 225 220 221 220 208 196 199 197 188 180 172 165 167 188 203 211 186 134 115 148 165 165 159 162 181 183 167 134 93 142 158 181 183 187 205 171 201 183 165 243 255 102 67 51 328 220 214 131 103 69 31 36 114 140 147 126 123 153 148 194 233 270 270 265 259 184 173 213 274 190 160 190 206 208 237 258 253 258 265 254 257 270 265 256
237 232 229 228 225 221 222 219 208 198 196 190 178 171 166 164 186 208 197 156 245 157 121 151 161 160 169 171 173 181 177 141 138 152 152 163 178 188 180 159 164 184 191 240 226 160 141 146 143 171 141 115 109 88 51 54 132 158 167 176 184 196 187 209 207 181 237 255 274 147 177 216 243 219 186 223 194 190 223 252 259 270 276 269 271 270 258 252
236 230 229 230 229 228 225 222 211 203 204 185 173 169 165 171 219 226 198 94 192 176 155 172 168 165 180 181 170 171 171 159 165 174 171 170 182 185 191 192 172 180 222 220 198 153 193 200 151 124 155 174 158 119 95 90 179 200 195 184 208 223 208 225 211 190 234 246 102 82 136 237 246 249 253 257 238 207 223 247 262 276 279 278 277 272 266 256
234 229 228 228 229 229 226 225 215 208 207 182 173 170 173 194 200 212 198 164 163 166 136 152 163 167 176 181 177 165 168 174 173 183 182 176 194 199 205 210 191 198 235 201 184 169 194 199 161 156 177 202 201 175 163 177 185 196 193 183 201 217 225 235 223 221 243 244 126 114 142 252 263 262 245 244 244 237 235 243 255 263 266 272 272 268 269 263
230 228 226 226 230 231 227 222 212 211 206 182 169 161 194 208 202 202 207 199 122 72 89 128 147 163 174 182 175 160 166 187 171 177 183 179 200 208 208 215 208 216 244 193 191 185 208 238 180 178 166 177 199 219 198 166 175 198 202 200 214 219 235 246 239 246 258 281 231 159 181 233 241 31 225 239 248 239 236 240 248 258 261 266 271 269 270 269
226 225 222 222 225 227 228 222 212 213 204 179 158 155 189 199 214 209 208 181 129 100 108 131 139 160 181 187 164 168 176 199 176 179 186 187 206 207 200 208 206 208 204 203 204 182 216 239 161 153 142 164 184 217 179 142 171 200 197 215 235 238 247 263 268 248 307 323 268 200 234 246 246 294 260 201 219 212 220 231 237 249 255 260 267 269 270 271
226 221 219 220 219 221 225 221 213 213 200 169 140 223 201 201 219 208 196 154 150 139 128 139 146 165 184 182 193 193 208 81 169 179 202 205 224 219 209 206 198 200 200 197 193 175 211 235 130 126 125 164 180 186 167 179 195 179 184 205 222 15 277 252 240 107 97 280 263 221 256 270 281 280 236 211 226 212 199 217 225 238 248 253 260 264 267 270
225 221 221 220 217 220 223 221 219 212 192 166 162 208 206 215 234 226 208 145 143 143 142 161 177 183 187 185 197 192 178 144 168 182 195 193 229 224 214 215 197 198 204 204 218 216 208 232 134 163 163 147 26 46 139 326 2 153 186 189 113 47 317 248 249 232 217 255 263 234 254 268 273 276 203 192 220 222 208 216 223 232 240 246 253 259 264 269
216 228 232 224 218 218 217 220 223 209 186 164 188 207 206 218 230 295 319 148 143 151 170 195 184 188 195 190 189 180 174 169 173 191 193 176 217 210 196 204 200 199 205 209 224 229 198 219 188 28 193 123 88 138 177 208 264 163 304 178 152 218 220 207 224 243 240 249 264 258 262 260 239 242 231 201 203 208 216 217 219 230 236 240 246 254 262 267
210 228 241 234 221 215 214 219 214 199 180 163 197 204 214 221 228 296 339 281 182 173 193 205 192 200 206 196 178 168 178 185 172 181 198 186 203 197 185 189 199 201 201 201 209 174 176 218 218 14 350 125 136 203 202 180 172 284 302 241 215 248 238 213 208 226 243 246 261 274 272 260 237 235 243 233 209 201 213 215 212 224 234 237 241 249 259 264
206 223 247 239 223 214 212 212 201 184 166 207 200 200 207 214 236 267 292 294 243 195 207 211 204 203 203 198 177 163 182 199 182 186 202 188 192 199 189 190 194 196 194 194 205 197 168 213 214 142 117 178 183 204 202 187 176 187 215 213 198 183 254 283 234 222 243 252 259 275 274 268 256 210 225 231 211 205 210 204 200 220 233 237 244 252 257 262
207 227 244 227 221 209 200 199 192 174 153 204 210 223 206 210 234 235 241 273 292 323 293 240 227 211 193 190 182 166 179 199 194 199 205 193 204 215 190 192 187 169 176 189 204 204 191 202 198 160 181 209 205 192 199 194 183 191 201 204 203 190 183 224 224 207 214 251 251 266 276 271 241 115 174 201 186 191 190 193 213 239 238 235 246 254 257 261
213 230 228 206 209 197 189 193 188 162 171 189 190 197 197 208 221 206 213 245 292 336 337 320 291 230 196 194 192 172 172 194 200 201 208 208 213 213 184 192 181 159 160 187 200 197 190 192 205 200 193 202 167 83 73 163 206 224 222 216 212 194 189 210 215 195 179 219 261 279 275 273 181 115 165 185 169 175 182 223 258 253 238 227 235 247 254 261
219 227 225 209 208 192 185 199 209 172 181 205 186 183 186 196 208 187 193 201 197 343 269 260 293 245 214 208 198 180 176 193 202 202 213 220 216 198 161 184 175 162 167 189 190 177 139 192 215 218 198 160 107 104 79 54 213 241 238 220 217 207 205 212 225 220 184 191 217 226 251 265 93 102 149 145 135 183 216 244 255 251 237 221 225 248 265 264
231 235 233 222 204 190 186 206 203 191 199 190 192 203 196 202 219 205 196 194 187 161 186 226 281 285 323 357 174 183 189 199 205 207 217 221 205 88 123 175 176 176 183 192 170 162 161 195 204 211 219 202 192 200 208 190 195 229 224 205 211 214 208 190 43 262 230 211 216 222 244 256 238 98 124 142 150 196 220 232 241 246 235 222 244 276 274 263
239 240 233 226 208 194 197 213 205 200 200 186 192 204 195 206 221 212 211 200 186 179 173 215 270 67 88 357 31 103 220 208 198 218 240 225 191 66 96 181 188 195 200 359 137 166 174 196 185 196 219 213 209 216 205 183 176 209 224 213 213 213 207 201 197 223 235 230 224 225 243 257 260 197 157 162 173 198 214 217 222 232 235 247 276 274 262 263
228 231 220 224 220 210 212 219 216 214 204 190 194 199 196 207 211 204 210 208 192 197 198 183 181 133 140 214 272 288 273 284 106 225 254 219 155 54 12 219 207 209 209 46 139 162 159 255 198 206 221 219 225 219 136 139 159 191 211 211 211 209 207 212 216 219 232 241 240 233 237 258 267 258 238 220 198 206 222 223 218 222 235 258 268 257 252 266
222 224 206 211 229 228 229 228 222 219 203 189 183 185 196 207 207 192 200 206 193 192 202 201 183 186 189 196 209 232 235 243 269 258 240 232 201 51 11 303 232 228 233 148 169 154 99 247 222 231 240 242 258 256 149 144 169 196 205 205 207 208 205 207 218 225 227 235 246 240 232 248 263 264 260 258 257 251 241 242 241 233 236 251 256 250 250 266
221 232 225 221 229 233 235 233 228 226 212 198 192 191 195 204 209 191 191 206 199 186 190 209 195 195 197 191 192 203 204 216 239 244 242 242 230 203 35 335 239 228 217 175 165 141 152 225 230 240 253 260 272 275 241 199 199 203 204 205 203 202 202 207 220 228 227 229 244 249 242 244 256 266 267 263 265 268 265 264 260 248 240 242 244 247 254 263
224 242 240 234 249 279 242 198 219 241 227 214 212 210 201 202 206 197 177 190 204 194 192 207 206 204 204 195 189 196 194 193 213 227 232 232 223 214 221 235 230 204 166 143 135 139 162 218 232 235 253 260 262 269 267 257 255 243 232 225 209 199 201 207 218 226 227 232 243 251 255 254 255 263 270 273 274 274 277 279 269 250 246 243 239 248 257 262
221 231 235 234 246 261 257 213 202 242 236 230 229 219 211 210 207 200 184 180 188 193 196 209 214 204 203 203 200 206 203 193 201 213 209 210 214 208 220 227 200 94 105 126 126 207 183 204 219 219 248 259 258 265 265 260 261 259 255 252 239 222 211 208 214 223 228 235 239 242 253 259 258 260 270 276 277 275 277 278 267 250 252 250 245 255 260 261
223 225 225 233 244 240 242 240 222 218 222 221 228 225 223 221 214 209 201 193 189 183 189 207 216 205 200 207 209 216 215 205 212 222 211 202 206 204 203 201 171 143 149 161 148 168 186 201 205 197 229 250 250 252 255 256 258 257 259 256 246 239 231 220 212 214 221 230 234 238 246 256 261 264 269 273 275 273 271 273 269 262 267 264 256 263 268 266
224 226 221 222 240 236 239 245 226 225 230 196 201 223 239 236 223 221 219 203 199 198 194 200 210 208 203 208 211 220 223 218 224 235 230 217 217 216 211 207 193 170 163 173 158 156 174 195 215 202 215 241 241 242 248 255 257 250 241 239 238 238 242 242 229 219 219 223 230 237 240 248 261 269 268 265 267 268 268 271 272 271 274 272 262 264 272 272